This demonstration page uses our WeatherBlox Daily Observations layout. Learn more.

Left ArrowRight Arrow

Hourly Observations for April 18, 2018

Temp ( °F °C ) Dew Point ( °F °C ) Humidity (%) Winds ( mph kmh ) Pressure ( in mb ) Visibility ( mi km ) Precip ( " mm )
12:53 am 00:53 Clear 32 0 28 -2.2 85 85 NE 5 7 29.94 1014 10 16 0.00 0.00
1:53 am 01:53 Cloudy 35 1.7 29 -1.7 78 78 Calm 29.94 1014 10 16 0.00 0.00
2:53 am 02:53 Cloudy 38 3.3 27 -2.8 65 65 ESE 3 6 29.94 1014 10 16 0.00 0.00
3:53 am 03:53 Mostly Cloudy 37 2.8 28 -2.2 70 70 E 5 7 29.93 1014 10 16 0.00 0.00
4:53 am 04:53 Clear 33 0.6 28 -2.2 82 82 NE 3 6 29.93 1013 10 16 0.00 0.00
5:53 am 05:53 Cloudy 34 1.1 29 -1.7 82 82 ENE 5 7 29.91 1013 10 16 0.00 0.00
6:53 am 06:53 Cloudy 36 2.2 29 -1.7 76 76 ENE 6 9 29.91 1013 10 16 0.00 0.00
7:53 am 07:53 Cloudy 37 2.8 30 -1.1 76 76 E 6 9 29.91 1013 10 16 0.00 0.00
8:53 am 08:53 Cloudy 39 3.9 29 -1.7 67 67 E 6 9 29.90 1013 10 16 0.00 0.00
9:53 am 09:53 Cloudy 41 5 29 -1.7 62 62 E 8 13 29.89 1012 10 16 0.00 0.00
10:53 am 10:53 Sunny 45 7.2 31 -0.6 58 58 ESE 8 13 29.84 1011 10 16 0.00 0.00
11:53 am 11:53 Sunny 49 9.4 33 0.6 55 55 ESE 7 11 29.80 1009 10 16 0.00 0.00
12:53 pm 12:53 Sunny 54 12.2 34 1.1 47 47 VRB 5 7 29.78 1009 10 16 0.00 0.00
1:53 pm 13:53 Sunny 59 15 38 3.3 46 46 VRB 5 7 29.74 1007 10 16 0.00 0.00
2:53 pm 14:53 Sunny 64 17.8 42 5.6 45 45 VRB 3 6 29.70 1006 10 16 0.00 0.00
3:53 pm 15:53 Mostly Sunny 68 20 45 7.2 44 44 SSE 5 7 29.67 1005 10 16 0.00 0.00
4:53 pm 16:53 Cloudy 68 20 48 8.9 49 49 W 5 7 29.66 1005 10 16 0.00 0.00
5:53 pm 17:53 Mostly Cloudy 70 21.1 50 10 49 49 E 3 6 29.64 1004 10 16 0.00 0.00
6:53 pm 18:53 Cloudy 66 18.9 48 8.9 52 52 NE 8 13 29.62 1003 10 16 0.00 0.00
7:53 pm 19:53 Cloudy 63 17.2 47 8.3 56 56 NNW 13 20 29.66 1004 10 16 0.00 0.00
8:53 pm 20:53 Cloudy with Light Rain 60 15.6 50 10 70 70 W 12 19 29.72 1006 10 16 0.00 0.03
9:53 pm 21:53 Cloudy 57 13.9 44 6.7 62 62 WNW 23 37 29.78 1008 10 16 0.00 0.03
10:53 pm 22:53 Mostly Cloudy 52 11.1 38 3.3 59 59 WNW 18 30 29.82 1010 10 16 0.00 0.00
11:53 pm 23:53 Mostly Cloudy 48 8.9 35 1.7 61 61 WNW 21 33 29.85 1011 10 16 0.00 0.00

Powered by AerisWeather